Theta_e
289 291 292 292 292 292 290 291 286 289 289 294 294 294 296 298 298 299 300 302 302 302 302 303 303 303 303 303 304 305 306 307 309 311 316 319 322 327 326 325 320 315 313 311
287 292 292 291 294 295 294 294 293 293 291 296 296 297 297 298 298 298 300 302 302 302 301 301 303 302 302 302 302 304 305 307 311 314 315 318 321 323 318 313 312 310 308 306
284 290 290 287 293 295 294 295 293 288 293 294 295 296 297 297 298 297 300 301 300 300 300 301 302 301 300 300 303 304 305 308 312 312 312 315 314 312 310 307 305 302 300 299
285 287 281 291 299 299 297 297 297 295 297 297 296 297 298 299 296 299 300 300 300 300 300 302 301 300 300 300 302 303 303 306 309 308 308 309 307 305 302 301 300 298 297 297
285 284 289 293 297 296 293 292 296 296 297 297 298 297 296 298 300 300 299 299 299 300 301 300 299 299 299 300 302 301 301 303 304 306 305 304 303 302 301 299 298 296 295 295
287 284 277 289 298 301 297 286 296 297 296 296 295 292 295 298 300 300 299 298 297 300 300 297 297 298 298 299 299 298 301 302 303 304 303 301 300 299 299 298 296 295 293 295
283 286 289 295 298 299 285 287 295 297 298 297 294 296 300 298 300 298 297 296 299 298 296 296 297 298 298 298 297 299 301 300 301 301 301 300 299 299 297 295 293 292 292 293
285 283 282 296 295 289 292 295 298 299 299 297 298 298 298 301 299 297 295 296 298 295 294 296 298 298 297 296 298 299 298 298 298 299 301 299 298 296 295 294 291 291 290 290
287 287 293 294 293 296 296 296 297 297 298 298 297 298 298 299 297 295 294 297 296 294 294 296 297 299 296 296 297 298 297 296 296 296 296 296 295 293 292 291 290 290 290 290
288 289 291 293 295 296 297 296 297 298 299 299 297 299 299 297 295 293 296 296 294 294 294 295 297 297 296 296 296 296 295 295 295 295 295 295 295 293 291 291 291 291 290 289
287 290 292 294 295 295 297 300 300 301 300 300 300 300 299 296 294 293 296 295 294 294 294 294 295 295 296 296 296 294 293 292 292 291 291 290 291 293 293 294 293 291 291 291
284 290 290 292 295 298 297 299 299 300 301 303 302 301 298 294 293 296 295 294 293 295 294 294 293 293 294 295 295 294 292 292 292 291 291 291 290 290 291 291 291 290 290 291
291 294 294 296 297 299 299 300 300 300 300 301 303 301 298 294 296 297 294 293 293 294 294 294 292 292 293 293 293 292 292 292 291 290 290 290 290 289 288 290 291 290 290 290
295 295 293 295 295 300 300 301 301 300 300 301 303 300 297 295 297 296 292 293 295 295 294 293 292 291 293 293 292 291 291 292 291 291 290 291 291 291 291 290 288 288 289 289
296 296 296 297 297 297 299 299 298 297 298 299 303 301 297 295 297 296 292 294 295 295 295 293 292 291 292 292 291 290 289 289 290 290 290 290 290 291 290 289 288 288 288 288
296 296 297 297 297 297 297 297 296 297 298 299 300 300 299 296 297 295 294 294 293 293 293 293 292 292 292 291 290 290 289 290 290 289 288 289 290 290 289 288 288 287 287 287
293 293 293 294 294 295 295 297 298 298 298 299 299 300 296 295 295 296 294 294 295 294 294 293 293 294 293 292 290 290 289 289 287 288 289 290 289 288 288 288 287 286 286 286
295 294 294 295 295 295 295 297 296 296 296 298 299 298 297 295 296 294 293 294 294 294 294 294 295 294 293 293 292 290 290 289 289 289 290 289 288 288 288 287 287 286 286 285
298 296 297 296 296 295 295 295 295 296 298 299 299 299 298 298 296 294 294 292 293 292 292 295 294 294 293 292 291 291 290 290 289 289 289 288 288 288 288 287 287 287 287 286
294 295 294 295 296 295 294 295 295 298 299 300 300 301 298 296 296 294 294 292 293 293 294 295 295 293 292 293 291 291 291 290 290 290 290 289 288 287 287 286 287 286 286 285
293 293 293 294 294 295 295 294 296 296 299 301 300 300 297 296 296 294 292 290 293 294 295 294 295 294 294 292 292 292 293 291 290 290 289 289 288 288 288 288 287 286 285 284
291 291 293 294 294 294 295 295 295 298 300 301 303 299 296 295 295 294 294 292 293 289 294 295 294 289 292 289 292 293 293 291 291 291 290 289 289 288 288 288 287 286 285 285
290 291 294 294 293 293 295 296 298 298 298 299 300 297 296 295 295 292 289 293 294 291 295 294 288 288 288 295 294 293 292 292 291 291 290 290 289 289 288 287 287 286 285 284
291 292 292 294 295 294 293 295 296 297 299 300 301 299 296 294 294 294 293 290 289 292 294 292 290 287 290 296 294 293 292 292 291 291 290 288 289 289 288 287 286 286 285 284
291 292 293 293 293 293 294 295 295 296 298 301 300 298 297 297 294 292 293 293 288 293 293 288 287 289 296 294 293 293 292 292 291 291 290 290 289 288 288 288 287 286 285 284
290 291 293 294 294 294 295 295 293 295 297 296 296 296 296 294 293 293 293 293 294 292 294 293 295 296 295 294 293 293 293 291 291 291 290 290 289 289 288 288 287 287 286 284
293 292 293 294 295 295 295 294 293 294 295 294 294 294 293 293 292 292 291 293 294 294 295 294 295 294 295 295 294 293 293 292 290 291 290 290 289 289 289 288 287 286 285 284
Wind_Speed
6 10 4 10 12 10 8 6 6 6 7 11 10 8 10 9 11 11 11 10 15 18 19 16 17 19 19 17 18 18 18 18 16 16 14 15 10 8 8 14 14 15 15 13
5 3 2 8 7 5 4 4 7 8 11 7 6 7 7 14 11 13 11 13 16 19 17 17 16 18 19 18 19 19 17 17 18 10 7 5 7 11 13 15 16 17 16 16
5 3 6 5 7 6 4 5 5 5 10 4 8 9 9 9 12 12 11 13 16 18 16 16 16 18 17 18 18 18 16 15 7 6 8 6 11 13 15 16 18 17 17 20
4 3 3 6 2 2 5 8 7 8 10 8 9 7 11 10 7 9 10 13 15 13 15 14 17 16 17 17 16 15 13 12 9 7 9 11 13 15 17 15 18 18 18 19
2 3 5 6 2 3 3 8 7 7 8 8 7 6 9 5 3 6 7 10 11 12 14 16 16 16 16 15 13 12 12 10 10 6 10 13 14 15 15 18 17 17 16 19
2 3 5 6 4 3 3 6 5 2 7 9 6 9 8 3 5 7 9 8 12 14 14 16 15 15 14 12 12 12 10 9 9 8 10 13 15 16 16 18 18 16 18 17
2 3 7 4 7 3 1 7 5 3 8 7 4 7 11 7 6 4 6 10 12 13 15 14 15 14 11 11 11 11 9 11 11 11 13 12 16 15 18 19 21 19 20 17
3 4 7 3 4 1 4 6 6 6 6 6 9 11 7 5 6 7 10 11 12 13 13 13 14 12 10 10 10 8 10 12 12 12 10 9 17 17 19 19 22 19 19 16
7 6 4 3 2 7 3 6 8 5 10 7 9 10 5 4 5 6 8 9 10 11 13 12 13 11 9 9 9 8 11 13 15 15 14 11 12 18 16 15 16 15 14 13
3 4 4 6 5 4 7 6 9 6 8 7 8 10 3 1 4 5 7 9 9 11 12 12 12 11 10 10 9 9 11 13 13 13 14 12 10 12 12 11 14 14 14 14
5 8 6 5 4 6 10 7 6 7 4 7 8 8 0 0 3 5 5 8 8 10 10 10 10 11 10 9 8 10 12 12 13 13 13 12 12 10 8 8 8 13 12 13
6 7 4 7 7 9 8 7 8 6 9 11 6 7 3 3 2 4 6 7 7 9 9 9 10 10 10 9 8 9 11 10 11 11 10 10 11 13 23 19 23 24 21 16
6 6 7 9 9 13 6 5 6 6 5 8 9 3 2 2 3 4 6 6 7 9 8 8 9 9 9 9 10 12 10 12 11 11 9 7 8 11 14 19 30 28 26 23
7 1 9 11 8 3 5 6 5 5 3 5 3 3 3 3 1 4 6 5 6 7 7 7 8 9 9 9 11 13 13 19 10 8 7 8 9 11 11 13 14 13 21 20
10 7 12 10 6 6 3 4 6 6 8 8 5 1 3 4 2 3 4 3 4 6 7 7 9 10 9 9 11 13 10 8 8 9 8 11 11 12 12 13 13 13 12 16
6 7 7 6 6 3 4 6 5 7 7 7 8 9 4 4 5 4 5 3 4 5 7 7 8 9 9 8 11 11 11 16 12 8 8 11 10 11 11 11 11 10 9 7
7 7 3 2 4 4 5 5 5 7 8 7 9 5 5 5 5 6 7 5 4 6 6 7 8 8 9 7 8 6 8 8 7 8 9 9 10 11 10 10 10 9 9 10
3 2 3 4 5 5 6 4 5 6 7 8 9 4 7 6 5 6 8 5 5 5 6 6 8 9 8 6 6 5 7 7 8 9 9 10 10 10 10 10 10 10 10 11
1 1 1 2 4 5 6 7 7 8 9 8 8 4 8 6 6 7 8 7 5 4 4 7 11 11 9 7 6 6 7 9 10 10 10 10 11 10 10 9 10 10 10 10
4 4 5 3 2 4 6 5 8 11 11 10 9 3 8 7 8 8 7 7 4 4 6 8 9 9 9 8 6 7 7 9 10 9 9 10 10 10 10 10 11 10 9 9
4 6 6 5 4 8 10 8 9 10 11 9 10 7 9 8 8 8 9 6 6 8 9 10 7 6 5 7 4 7 5 8 10 10 10 10 10 10 10 10 10 9 9 9
2 4 6 5 8 8 8 7 9 11 10 12 8 10 11 9 8 6 6 7 6 8 8 7 5 6 6 7 6 6 5 8 9 9 9 9 10 10 9 10 9 9 9 9
2 4 4 6 8 8 9 9 8 9 10 11 5 10 10 8 7 8 7 6 8 8 9 7 5 9 8 4 6 7 7 8 9 9 9 9 9 9 9 9 9 9 8 8
3 3 4 5 6 7 8 7 7 9 10 13 6 9 11 9 5 3 7 9 11 12 10 7 5 7 7 4 7 7 7 8 8 9 9 10 9 9 9 9 9 9 8 9
3 3 4 4 5 4 7 6 8 7 10 4 8 9 9 6 4 7 8 9 11 13 11 7 6 5 4 7 6 7 6 7 8 9 9 9 9 9 9 9 9 8 8 8
3 5 4 5 6 5 4 3 5 5 5 3 4 5 7 6 8 8 9 12 12 13 10 4 4 4 5 9 9 8 8 9 9 8 9 9 10 9 9 9 9 8 8 8
4 6 4 5 5 4 2 3 4 5 4 2 4 5 7 8 9 9 11 10 11 11 9 6 3 6 5 6 8 8 8 8 9 9 9 9 9 9 9 9 8 8 8 8
Wind_Direction
244 254 240 260 268 273 194 207 188 257 231 278 284 291 288 282 290 306 310 319 319 323 325 321 317 327 319 317 312 308 305 303 290 284 285 284 222 197 163 134 114 111 107 98
288 281 238 266 266 251 208 212 247 265 283 239 281 296 290 300 308 311 316 316 317 326 325 318 317 324 319 317 309 307 305 300 294 284 313 260 146 139 125 106 106 107 106 103
261 323 323 315 223 220 255 248 217 268 272 296 304 305 296 292 306 302 306 312 319 329 321 316 322 320 318 315 311 311 317 319 336 38 19 59 102 108 103 105 105 103 101 101
251 16 262 243 267 243 234 264 246 271 272 272 272 273 283 285 266 295 309 316 320 320 316 319 318 320 320 317 317 322 331 338 356 53 65 84 92 97 97 100 102 103 104 106
194 205 291 300 249 226 201 280 261 233 269 295 292 322 292 281 256 279 286 306 313 316 317 321 322 323 322 322 328 335 344 11 9 42 89 97 99 103 105 103 101 99 103 107
142 223 229 242 284 323 125 291 283 248 284 279 340 328 298 282 299 310 319 325 324 324 325 329 323 325 326 339 342 342 357 19 31 46 77 98 104 103 105 104 101 100 98 97
163 259 280 241 299 315 148 250 298 243 262 275 264 227 273 328 305 309 303 333 331 338 337 322 325 329 339 351 355 348 15 37 50 60 80 93 101 102 105 104 101 98 98 96
152 204 273 358 355 296 231 292 273 303 283 280 273 286 295 293 317 337 337 343 350 340 329 327 331 333 6 9 354 10 46 51 53 57 76 91 103 100 98 104 102 104 103 94
181 222 249 338 252 267 244 247 279 284 284 278 279 280 310 291 326 348 345 337 355 337 328 337 341 354 20 9 8 34 58 60 60 63 64 66 87 98 99 98 103 112 112 116
26 292 275 309 309 277 296 278 287 281 277 288 275 287 248 292 342 5 347 351 345 335 337 345 352 10 18 23 25 41 59 65 71 74 77 70 78 82 95 114 113 115 122 119
268 287 295 252 233 295 322 313 321 316 293 299 305 309 197 145 13 15 356 2 346 337 338 356 3 12 14 25 38 56 62 65 67 66 66 71 65 72 81 76 95 116 112 112
232 234 184 261 290 317 312 309 314 318 331 330 324 316 114 84 39 10 22 6 348 345 351 5 16 17 16 25 41 64 73 71 70 75 70 72 86 90 57 75 78 75 75 94
227 212 219 250 276 293 263 278 301 316 325 325 343 10 86 84 20 20 43 11 354 352 3 17 31 25 23 31 52 57 70 76 76 73 72 78 84 95 96 69 67 72 77 82
239 210 289 258 253 275 290 280 293 295 298 318 333 63 101 106 50 50 50 14 -0 5 17 31 47 43 33 48 64 67 66 71 74 69 81 95 93 89 85 84 84 74 62 81
256 210 235 269 276 294 276 327 337 347 334 349 356 229 179 152 70 81 89 46 16 20 30 39 49 53 48 51 70 73 69 61 70 74 65 76 81 85 88 91 89 90 85 69
290 295 296 253 261 341 352 346 334 332 338 330 334 335 213 152 124 109 103 57 48 37 47 55 60 62 67 63 79 77 74 67 78 76 72 81 85 89 87 86 87 85 84 87
250 281 289 325 31 344 334 325 320 317 317 319 322 327 125 133 143 123 94 89 69 64 62 72 81 77 64 51 74 87 90 83 76 78 80 86 86 87 89 90 90 86 79 75
130 94 39 348 323 327 320 301 297 301 306 307 309 161 164 180 155 133 120 115 95 74 78 74 88 89 88 66 59 66 84 86 89 86 87 89 90 89 89 89 88 89 85 70
109 56 29 298 303 309 312 314 315 315 314 311 308 248 193 175 137 135 131 129 123 95 80 95 94 98 94 79 73 71 87 95 91 91 93 92 87 85 88 89 89 83 81 78
350 12 7 354 336 292 292 299 308 323 324 315 310 238 161 155 145 146 139 133 123 113 114 108 98 94 104 86 69 88 95 103 101 97 97 95 95 99 97 87 89 87 88 89
340 334 324 321 333 330 323 314 314 313 307 305 288 196 168 157 152 147 133 132 132 127 121 112 103 86 93 107 84 100 90 110 107 107 105 105 104 95 91 92 94 93 92 94
328 321 324 328 329 321 319 304 299 297 309 314 280 154 151 157 148 141 127 136 131 128 124 114 93 68 98 100 115 122 98 103 106 106 104 103 100 99 99 97 96 98 100 98
334 324 320 325 316 312 312 301 314 316 304 318 183 161 165 161 151 144 133 137 134 124 122 113 105 78 105 102 129 128 108 106 104 103 103 105 105 107 105 105 104 103 100 97
321 314 299 305 308 304 306 313 322 312 302 305 187 164 154 142 120 83 116 128 127 126 124 120 95 76 112 104 110 111 105 104 104 106 104 102 107 106 104 105 100 98 100 94
268 268 277 284 284 289 300 306 316 314 317 307 141 140 136 133 121 137 139 131 126 124 135 126 102 58 106 127 120 119 115 115 113 112 111 110 109 109 109 108 107 109 109 106
257 251 245 247 253 268 292 302 311 306 322 25 92 117 117 108 118 128 132 135 130 130 140 128 106 67 96 133 136 134 120 118 115 115 115 110 111 111 113 113 112 112 108 111
249 261 275 272 261 252 253 287 305 315 324 124 115 106 115 129 121 126 136 134 135 138 142 113 95 89 76 103 118 122 118 113 115 117 113 113 115 116 115 114 116 119 119 122